Home   Weather   Port of Spain   Past weeks

Flag for Trinidad and Tobago Past Weather in Port of Spain, Trinidad and Tobago — Yesterday and Last 2 Weeks

Now
75 °F

Passing clouds.


Feels Like: 75 °F
Forecast: 76 / 82 °F
Wind: No wind

Location: Piarco International Airport - Trinidad

Current Time: Jan 18, 2017 at 12:34:28 am

Latest Report: Jan 17, 2017 at 11:00 pm


Visibility: N/A

Pressure: 29.95 "Hg

Humidity: 89%

Dew Point: 72 °F

Location of Port of SpainLocation

Past Weather in Port of Spain — Graph

°F

Port of Spain Temperature Yesterday

Maximum temperature yesterday: 86 °F (at 10:00 am)
Minimum temperature yesterday: 70 °F (at 4:00 am)
Average temperature yesterday: 77 °F

High & Low Weather Summary for the Past Weeks

 TemperatureHumidityPressure
High90 °F (Jan 8, 2:00 pm)100% (Jan 5, 8:00 pm)30.01 "Hg (Jan 5, 8:00 pm)
Low68 °F (Jan 10, 4:00 am)46% (Jan 9, 12:00 pm)29.83 "Hg (Jan 4, 5:00 pm)
Average78 °F79%29.91 "Hg
* Reported Jan 2 11:00 pm — Jan 17 11:00 pm, Port of Spain, Weather by CustomWeather, © 2017

Note: Actual official high and low records may vary slightly from our data, if they occured in-between our weather recording intervals... More about our weather records

Advertising

Port of Spain Weather History for the Previous 24 Hours

Scroll right to see more
 ConditionsComfort  
Time TempWeatherWind HumidityBarometerVisibility
11:00 pm
Tue, Jan 17
75 °FPassing clouds.No wind89%29.95 "HgN/A
10:00 pm77 °FPassing clouds.No wind83%29.95 "HgN/A
9:00 pm77 °FPassing clouds.8 mph83%29.95 "HgN/A
8:00 pm77 °FPassing clouds.6 mph83%29.92 "HgN/A
7:00 pm77 °FPassing clouds.3 mph83%29.89 "HgN/A
6:00 pm79 °FPassing clouds.13 mph79%29.86 "HgN/A
5:00 pm82 °FPartly sunny.12 mph66%29.86 "HgN/A
4:00 pm84 °FScattered clouds.13 mph66%29.86 "HgN/A
3:00 pm82 °FPartly sunny.13 mph74%29.86 "HgN/A
2:00 pm81 °FScattered clouds.12 mph84%29.86 "HgN/A
1:00 pm79 °FScattered showers. Partly sunny.12 mph89%29.89 "Hg4 mi
12:00 pm86 °FScattered showers. Scattered clouds.15 mph66%29.92 "Hg6 mi
11:00 am84 °FScattered clouds.14 mph70%29.92 "HgN/A
10:00 am86 °FPassing clouds.12 mph59%29.95 "HgN/A
9:00 am82 °FPassing clouds.No wind70%29.95 "HgN/A
7:00 am72 °FPassing clouds.No wind94%29.92 "HgN/A
6:00 am70 °FPassing clouds.No wind94%29.89 "HgN/A
5:00 am70 °FPassing clouds.No wind94%29.89 "HgN/A
4:00 am70 °FPassing clouds.No wind94%29.89 "HgN/A
3:00 am72 °FPassing clouds.No wind88%29.89 "HgN/A
2:00 am72 °FPassing clouds.No wind88%29.89 "HgN/A
1:00 am73 °FPassing clouds.No wind78%29.92 "HgN/A
12:00 am75 °FPassing clouds.No wind78%29.92 "HgN/A
Weather by CustomWeather, © 2017

See weather overviewHow to use our weather pages